Date String (YYYY-MM-DD hh:mm:ss) UTC,Instrument flags,absolute air pressure of the measurement (hPa),sample flow rate (lpm),inlet stack bypass flow (lpm),air temperature of the measurement (°C),ambient temperature measured by the external sensor (°C),aerosol sample conditioner tube jacket temperature (°C),OPC LED temperature (°C),internal box temperature (°C),relative humidity of the measurement (%),span deviation,mass concentration of particles derived from Lorenz-Mie calculation of OPC scattering (μg/m³),mass concentration of particles derived from Lorenz-Mie calculation of OPC scattering (μg/m³),mass concentration of particles derived from Lorenz-Mie calculation of OPC scattering (μg/m³)
DateTimeUTC,F1_M11,P_M11,Q1_M11,Q2_M11,T1_M11,T2_M11,T3_M11,T4_M11,T5_M11,U1_M11,ZSPAN_M11,X0_M11,X2_M11,X1_M11
2024-05-25 23:00:00,SystemResetWarning,0818.7,5.00,000.00,030.7,030.0,000.0,038.9,032.4,011.7,0000.0,0011.99,0003.04,0001.20
2024-05-25 23:01:00,SystemResetWarning,0818.7,5.00,000.00,030.7,030.0,000.0,038.9,032.4,011.9,0000.0,0011.33,0002.99,0001.21
2024-05-25 23:02:00,SystemResetWarning,0818.6,4.99,000.00,030.7,030.1,000.0,038.9,032.4,011.7,0000.0,0010.84,0003.00,0001.22
2024-05-25 23:03:00,SystemResetWarning,0818.6,5.00,000.00,030.7,030.1,000.0,038.9,032.5,011.0,0000.0,0010.77,0002.93,0001.22
2024-05-25 23:04:00,SystemResetWarning,0818.6,5.00,000.00,030.8,030.1,000.0,039.0,032.5,010.8,0000.0,0010.52,0002.96,0001.23
2024-05-25 23:05:00,SystemResetWarning,0818.6,4.99,000.00,030.8,030.1,000.0,039.0,032.5,010.9,0000.0,0010.51,0003.03,0001.25
2024-05-25 23:06:00,SystemResetWarning,0818.6,5.00,000.00,030.8,030.1,000.0,039.0,032.5,011.0,0000.0,0010.42,0003.08,0001.25
2024-05-25 23:07:00,SystemResetWarning,0818.7,5.01,000.00,030.8,030.1,000.0,039.0,032.5,011.1,0000.0,0010.35,0003.16,0001.26
2024-05-25 23:08:00,SystemResetWarning,0818.6,4.99,000.00,030.8,030.1,000.0,039.0,032.5,010.9,0000.0,0010.47,0003.15,0001.27
2024-05-25 23:09:00,SystemResetWarning,0818.7,5.00,000.00,030.8,030.1,000.0,039.1,032.5,010.9,0000.0,0010.17,0003.11,0001.28
2024-05-25 23:10:00,SystemResetWarning,0818.6,5.00,000.00,030.9,030.1,000.0,039.1,032.6,011.0,0000.0,0008.67,0003.09,0001.29
2024-05-25 23:11:00,SystemResetWarning,0818.6,5.00,000.00,030.9,030.1,000.0,039.1,032.6,011.1,0000.0,0008.61,0003.04,0001.31
2024-05-25 23:12:00,SystemResetWarning,0818.6,5.01,000.00,030.9,030.1,000.0,039.1,032.6,011.1,0000.0,0008.73,0003.03,0001.32
2024-05-25 23:13:00,SystemResetWarning,0818.6,5.01,000.00,030.9,030.2,000.0,039.1,032.6,010.7,0000.0,0008.72,0003.03,0001.30
2024-05-25 23:14:00,SystemResetWarning,0818.6,4.99,000.00,030.9,030.2,000.0,039.2,032.6,010.7,0000.0,0008.60,0003.06,0001.32
2024-05-25 23:15:00,SystemResetWarning,0818.7,4.99,000.00,030.9,030.2,000.0,039.2,032.6,010.9,0000.0,0009.29,0003.11,0001.34
2024-05-25 23:16:00,SystemResetWarning,0818.6,5.01,000.00,030.9,030.2,000.0,039.2,032.6,011.2,0000.0,0009.19,0003.11,0001.34
2024-05-25 23:17:00,SystemResetWarning,0818.7,5.01,000.00,030.9,030.2,000.0,039.2,032.6,011.2,0000.0,0009.76,0003.07,0001.36
2024-05-25 23:18:00,SystemResetWarning,0818.6,5.00,000.00,030.9,030.2,000.0,039.2,032.6,011.1,0000.0,0009.76,0002.97,0001.37
2024-05-25 23:19:00,SystemResetWarning,0818.6,5.00,000.00,030.9,030.2,000.0,039.2,032.6,010.8,0000.0,0009.67,0002.99,0001.39
2024-05-25 23:20:00,SystemResetWarning,0818.6,5.00,000.00,030.9,030.2,000.0,039.2,032.6,010.4,0000.0,0009.41,0003.07,0001.41
2024-05-25 23:21:00,SystemResetWarning,0818.6,4.99,000.00,030.9,030.2,000.0,039.3,032.6,010.6,0000.0,0009.56,0003.13,0001.43
2024-05-25 23:22:00,SystemResetWarning,0818.6,5.00,000.00,030.9,030.2,000.0,039.3,032.6,010.8,0000.0,0009.46,0003.11,0001.44
2024-05-25 23:23:00,SystemResetWarning,0818.6,5.01,000.00,030.9,030.2,000.0,039.3,032.6,010.5,0000.0,0009.37,0003.11,0001.45
2024-05-25 23:24:00,SystemResetWarning,0818.6,5.00,000.00,031.0,030.2,000.0,039.3,032.6,010.5,0000.0,0009.22,0003.11,0001.46
2024-05-25 23:25:00,SystemResetWarning,0818.5,4.99,000.00,031.0,030.2,000.0,039.3,032.6,010.8,0000.0,0009.13,0003.09,0001.46
2024-05-25 23:26:00,SystemResetWarning,0818.5,4.99,000.00,031.0,030.2,000.0,039.3,032.6,010.6,0000.0,0009.37,0003.06,0001.45
2024-05-25 23:27:00,SystemResetWarning,0818.6,5.00,000.00,031.0,030.2,000.0,039.3,032.6,010.7,0000.0,0009.26,0003.05,0001.46
2024-05-25 23:28:00,SystemResetWarning,0818.6,5.00,000.00,031.0,030.2,000.0,039.3,032.6,010.9,0000.0,0008.65,0003.09,0001.46
2024-05-25 23:29:00,SystemResetWarning,0818.5,5.00,000.00,031.0,030.2,000.0,039.3,032.6,010.9,0000.0,0008.43,0003.09,0001.46
2024-05-25 23:30:00,SystemResetWarning,0818.5,5.00,000.00,031.0,030.2,000.0,039.3,032.6,010.7,0000.0,0008.45,0003.04,0001.44
2024-05-25 23:31:00,SystemResetWarning,0818.4,5.00,000.00,031.0,030.2,000.0,039.3,032.6,011.0,0000.0,0008.33,0002.98,0001.43
2024-05-25 23:32:00,SystemResetWarning,0818.5,5.00,000.00,031.0,030.1,000.0,039.3,032.6,011.1,0000.0,0008.07,0002.83,0001.40
2024-05-25 23:33:00,SystemResetWarning,0818.5,4.99,000.00,031.0,030.1,000.0,039.3,032.6,011.5,0000.0,0008.51,0002.81,0001.38
2024-05-25 23:34:00,SystemResetWarning,0818.5,5.00,000.00,031.0,030.2,000.0,039.4,032.6,011.3,0000.0,0008.59,0002.85,0001.37
2024-05-25 23:35:00,SystemResetWarning,0818.6,5.00,000.00,031.0,030.2,000.0,039.4,032.6,011.1,0000.0,0008.68,0002.84,0001.36
2024-05-25 23:36:00,SystemResetWarning,0818.6,5.00,000.00,031.0,030.2,000.0,039.4,032.6,010.9,0000.0,0008.63,0002.80,0001.34
2024-05-25 23:37:00,SystemResetWarning,0818.7,5.00,000.00,031.0,030.2,000.0,039.4,032.6,010.7,0000.0,0008.07,0002.75,0001.32
2024-05-25 23:38:00,SystemResetWarning,0818.7,5.00,000.00,031.0,030.2,000.0,039.4,032.6,011.0,0000.0,0007.46,0002.69,0001.30
2024-05-25 23:39:00,SystemResetWarning,0818.7,5.01,000.00,031.0,030.2,000.0,039.4,032.6,010.9,0000.0,0007.83,0002.67,0001.29
2024-05-25 23:40:00,SystemResetWarning,0818.7,5.00,000.00,031.0,030.2,000.0,039.4,032.6,011.0,0000.0,0007.77,0002.59,0001.26
2024-05-25 23:41:00,SystemResetWarning,0818.7,5.00,000.00,031.0,030.2,000.0,039.4,032.6,011.0,0000.0,0007.62,0002.59,0001.25
2024-05-25 23:42:00,SystemResetWarning,0818.8,5.00,000.00,031.0,030.2,000.0,039.4,032.6,010.9,0000.0,0007.56,0002.60,0001.23
2024-05-25 23:43:00,SystemResetWarning,0818.8,5.00,000.00,031.0,030.2,000.0,039.4,032.6,010.7,0000.0,0007.53,0002.60,0001.22
2024-05-25 23:44:00,SystemResetWarning,0818.9,5.00,000.00,031.0,030.2,000.0,039.4,032.6,010.9,0000.0,0007.03,0002.59,0001.22
2024-05-25 23:45:00,SystemResetWarning,0819.2,5.01,000.00,031.0,030.2,000.0,039.4,032.7,011.2,0000.0,0006.85,0002.53,0001.20
2024-05-25 23:46:00,SystemResetWarning,0819.2,5.01,000.00,031.0,030.2,000.0,039.4,032.7,011.0,0000.0,0007.58,0002.53,0001.18
2024-05-25 23:47:00,SystemResetWarning,0819.2,4.99,000.00,031.0,030.2,000.0,039.4,032.7,012.3,0000.0,0008.02,0002.54,0001.18
2024-05-25 23:48:00,SystemResetWarning,0818.9,4.99,000.00,031.0,030.2,000.0,039.4,032.7,013.8,0000.0,0008.05,0002.57,0001.18
2024-05-25 23:49:00,SystemResetWarning,0819.2,4.99,000.00,031.0,030.2,000.0,039.4,032.7,014.0,0000.0,0008.43,0002.58,0001.19
2024-05-25 23:50:00,SystemResetWarning,0819.1,5.01,000.00,031.0,030.2,000.0,039.4,032.7,013.6,0000.0,0008.44,0002.56,0001.17
2024-05-25 23:51:00,SystemResetWarning,0819.2,5.01,000.00,031.0,030.3,000.0,039.4,032.7,013.7,0000.0,0008.51,0002.59,0001.16
2024-05-25 23:52:00,SystemResetWarning,0819.3,5.00,000.00,031.1,030.3,000.0,039.4,032.7,014.9,0000.0,0009.02,0002.54,0001.17
2024-05-25 23:53:00,SystemResetWarning,0819.3,5.00,000.00,031.1,030.3,000.0,039.4,032.7,015.3,0000.0,0009.50,0002.55,0001.19
2024-05-25 23:54:00,SystemResetWarning,0819.3,4.99,000.00,031.1,030.3,000.0,039.4,032.7,015.4,0000.0,0009.98,0002.61,0001.21
2024-05-25 23:55:00,SystemResetWarning,0819.3,5.00,000.00,031.1,030.3,000.0,039.4,032.8,015.6,0000.0,0010.57,0002.70,0001.23
2024-05-25 23:56:00,SystemResetWarning,0819.3,5.00,000.00,031.1,030.3,000.0,039.4,032.8,015.8,0000.0,0010.96,0002.73,0001.24
2024-05-25 23:57:00,SystemResetWarning,0819.3,5.00,000.00,031.1,030.4,000.0,039.4,032.8,015.9,0000.0,0011.19,0002.81,0001.26
2024-05-25 23:58:00,SystemResetWarning,0819.3,5.00,000.00,031.1,030.4,000.0,039.4,032.8,015.9,0000.0,0010.82,0002.91,0001.30
2024-05-25 23:59:00,SystemResetWarning,0819.3,5.01,000.00,031.2,030.4,000.0,039.4,032.8,016.1,0000.0,0011.67,0003.02,0001.33
